Weather Roundup
Issued by NWS

Home | Current Version | Previous Version | Text Only | Print | Product List | Glossary On
Versions: 1 2 3 4 5 6 7 8 9 10 11 12 13 14 15 16 17 18 19 20 21 22 23 24 25 26 27 28 29 30 31 32 33 34 35 36 37 38 39 40 41 42 43 44 45 46 47 48 49 50
000
NZUS93 KARX 302259
HRRWXR

CURRENT HOURLY OBSERVATIONS ACROSS
MUCH OF THE UPPER MISSISSIPPI VALLEY
NATIONAL WEATHER SERVICE LA CROSSE WI
600 PM CDT SAT AUG 30 2014


...SOUTHEAST MINNESOTA...


CITY           SKY/WX    TMP DP  RH WIND       PRES   REMARKS
ROCHESTER      CLOUDY    75  64  68 N3        29.87S
ROCHESTER/MAYO MOCLDY    74  61  63 N6        29.86S
WINONA         SUNNY     73  64  73 NW7       29.85R
AUSTIN         SUNNY     75  64  69 NW7       29.86S
ALBERT LEA     MOSUNNY   75  64  69 W3        29.86F
DODGE CENTER   RAIN      70  66  88 CALM      29.87R
PRESTON        MOSUNNY   72  69  89 CALM      29.87R
OWATONNA       CLOUDY    75  64  69 NW3       29.86S
FARIBAULT      PTSUNNY   79  64  61 S3        29.85S
$$

...ELSEWHERE IN MINNESOTA...


CITY           SKY/WX    TMP DP  RH WIND       PRES   REMARKS
MINNEAPOLIS    PTSUNNY   73  61  65 E9        29.85S
INTNL FALLS    SUNNY     70  51  51 NE5       29.88S
DULUTH         PTSUNNY   63  58  83 E9        29.89R
RED WING       MOSUNNY   73  63  68 E5        29.85R
REDWOOD FALLS  CLOUDY    70  62  76 NW5       29.86F
MANKATO        SUNNY     73  63  68 W9        29.86S
WORTHINGTON    MOSUNNY   73  61  64 W5        29.89S
FAIRMONT       PTSUNNY   73  61  64 N5        29.86F
$$

...SOUTHWEST WISCONSIN...


CITY           SKY/WX    TMP DP  RH WIND       PRES   REMARKS
LA CROSSE      MOSUNNY   78  65  63 N9        29.83S
PRAIRIE DU CHI MOSUNNY   81  63  54 W6        29.83R
BOSCOBEL       PTSUNNY   81  66  60 NW6       29.83S
LONE ROCK      NOT AVBL
PLATTEVILLE    MOSUNNY   78  69  73 CALM      29.86S
FORT MC COY    CLOUDY    74  64  72 NW7       29.85S
VIROQUA        FAIR      75  64  68 W7        29.86R
WIS DELLS      SUNNY     79  62  56 W9        29.82S
$$

...ELSEWHERE IN WISCONSIN...


CITY           SKY/WX    TMP DP  RH WIND       PRES   REMARKS
MILWAUKEE      PTSUNNY   77  70  79 W9        29.82R
MADISON        MOSUNNY   80  65  59 CALM      29.82S
GREEN BAY      CLOUDY    73  68  84 W8        29.78R
EAU CLAIRE     CLOUDY    67  61  81 N9        29.86S
BLACK RVR FLS  RAIN      70  65  84 NW7       29.84S
MEDFORD        CLOUDY    63  60  91 NW6       29.87R
WAUSAU         CLOUDY    68  61  78 NW8       29.83R
WIS RAPIDS     CLOUDY    74  65  73 NW12      29.84R
MARSHFIELD     CLOUDY    70  63  78 N10       29.85R
RICE LAKE      MOSUNNY   67  59  73 CALM      29.89S
$$

...NORTHEAST IOWA...


CITY           SKY/WX    TMP DP  RH WIND       PRES   REMARKS
WATERLOO       MOSUNNY   79  65  62 W9        29.85S
DUBUQUE        MOSUNNY   76  66  71 W10       29.86S
DECORAH        SUNNY     77  66  69 W3        29.84S
MASON CITY     MOSUNNY   77  64  64 W7        29.88S
CHARLES CITY   MOSUNNY   77  66  69 W8G15     29.86S
OELWEIN        MOSUNNY   79  68  69 SW9       29.87S
$$

...ELSEWHERE IN IOWA...


CITY           SKY/WX    TMP DP  RH WIND       PRES   REMARKS
DES MOINES     MOSUNNY   82  68  62 NW7       29.87R
IOWA CITY      SUNNY     78  67  68 W8        29.88S
FORT DODGE     MOSUNNY   75  64  69 CALM      29.87F
MARSHALLTOWN   MOSUNNY   77  67  71 N3        29.87S
CEDAR RAPIDS   MOSUNNY   78  69  73 W7        29.86F
$$

...NORTHERN ILLINOIS...


CITY           SKY/WX    TMP DP  RH WIND       PRES   REMARKS
CHICAGO-OHARE  PTSUNNY   82  64  54 W15       29.84R
DUPAGE         MOSUNNY   81  67  62 W12       29.85S
CHICAGO-MIDWAY PTSUNNY   84  66  54 W14       29.84S
MOLINE         SUNNY     81  67  62 W7        29.86S
ROCKFORD       MOSUNNY   79  66  64 W12       29.86S
STERLING       SUNNY     81  66  61 W9        29.87R
PEORIA         MOSUNNY   85  69  58 NW5       29.87S
$$

NOTE: "FAIR" INDICATES FEW OR NO CLOUDS BELOW 12,000 FEET WITH NO
SIGNIFICANT WEATHER AND/OR OBSTRUCTIONS TO VISIBILITY. WIND
SPEEDS ARE IN MILES-PER-HOUR.



USA.gov is the U.S. government's official web portal to all federal, state and local government web resources and services.